This is the latest recevied weather packets stored in our database for station/object KJ7HSW. If no packets are shown the sender has not sent any weather packets the latest 10 day(s).
| Time | Temp. | Humidity | Pressure | Rain* | Wind** | Luminosity | Snow |
|---|---|---|---|---|---|---|---|
| 1777940681 | 26.67° C | 40% | 1008.2 hPa | 0 mm | - | 93 W/m² | - |
| 1777940379 | 26.67° C | 39% | 1008.1 hPa | 0 mm | - | 125 W/m² | - |
| 1777940077 | 26.67° C | 41% | 1008.4 hPa | 0 mm | - | 87 W/m² | - |
| 1777939773 | 27.22° C | 38% | 1008.4 hPa | 0 mm | - | 69 W/m² | - |
| 1777939472 | 26.67° C | 39% | 1008.4 hPa | 0 mm | - | 115 W/m² | - |
| 1777939168 | 27.22° C | 40% | 1008.4 hPa | 0 mm | - | 78 W/m² | - |
| 1777938865 | 27.78° C | 36% | 1008.4 hPa | 0 mm | - | 108 W/m² | - |
| 1777938561 | 28.33° C | 36% | 1008.4 hPa | 0 mm | - | 274 W/m² | - |
| 1777938259 | 28.33° C | 37% | 1008.2 hPa | 0 mm | - | 455 W/m² | - |
| 1777937955 | 28.33° C | 38% | 1008.2 hPa | 0 mm | - | 468 W/m² | - |
| 1777937651 | 28.33° C | 37% | 1008.4 hPa | 0 mm | - | 459 W/m² | - |
| 1777937348 | 28.33° C | 36% | 1008.5 hPa | 0 mm | - | 487 W/m² | - |
| 1777937045 | 28.89° C | 36% | 1008.5 hPa | 0 mm | - | 523 W/m² | - |
| 1777936742 | 28.89° C | 36% | 1008.4 hPa | 0 mm | - | 535 W/m² | - |
| 1777936438 | 28.89° C | 35% | 1008.7 hPa | 0 mm | - | 553 W/m² | - |
| 1777936135 | 28.89° C | 35% | 1008.4 hPa | 0 mm | - | 570 W/m² | - |
| 1777935832 | 28.89° C | 35% | 1008.5 hPa | 0 mm | - | 582 W/m² | - |
| 1777935531 | 28.89° C | 35% | 1008.7 hPa | 0 mm | - | 597 W/m² | - |
| 1777935227 | 28.89° C | 34% | 1008.6 hPa | 0 mm | - | 612 W/m² | - |
| 1777934925 | 28.89° C | 33% | 1008.6 hPa | 0 mm | - | 621 W/m² | - |
| 1777934621 | 28.89° C | 34% | 1008.6 hPa | 0 mm | - | 633 W/m² | - |
| 1777934318 | 28.89° C | 37% | 1008.7 hPa | 0 mm | - | 652 W/m² | - |
| 1777934013 | 28.89° C | 34% | 1008.9 hPa | 0 mm | - | 665 W/m² | - |
| 1777933710 | 28.89° C | 37% | 1008.8 hPa | 0 mm | - | 678 W/m² | - |
| 1777933407 | 28.89° C | 36% | 1008.9 hPa | 0 mm | - | 684 W/m² | - |
* Rain latest hour (hover to see other rain measurements)
** Current wind speed in m/s (hover to see current wind gust speed)